Theta_e
348 346 338 328 328 324 320 318 319 324 326 337 344 342 343 342 341 341 341 338 333 333 335 334 334 336 338 340 342 344 344 344 344 345 345 345 346 345 344 344 345 345 344 345 344 344 343 343 343 343 342 341 341 340 338 338 337 337 338 338 339 340 340 339 337 335 332 330 329 333 336 337 336 337 338 339 338 338 338 339 340 340 340 340 340
348 346 338 328 328 323 319 318 317 323 325 334 342 342 343 343 343 342 342 339 337 338 337 336 337 338 340 342 342 343 343 344 344 344 345 345 345 345 344 344 345 344 344 344 344 343 343 343 342 342 341 340 339 337 334 333 332 331 331 331 333 335 338 337 334 331 330 331 328 329 334 335 336 336 336 337 337 337 338 339 339 339 339 338 338
347 346 340 329 327 324 320 318 317 322 324 332 338 341 342 342 343 341 341 339 339 339 337 337 338 340 342 343 342 343 343 344 344 344 345 344 344 344 344 344 344 344 344 344 344 343 343 343 341 340 338 336 334 333 332 332 331 330 328 326 325 327 332 335 333 329 329 333 333 331 332 332 334 335 335 334 334 336 337 338 338 338 338 337 337
347 347 340 328 325 326 320 317 318 321 324 330 335 339 340 339 340 338 338 337 338 338 338 339 340 343 343 343 343 343 344 344 344 344 344 344 344 344 344 343 343 344 343 343 343 342 342 342 340 338 335 332 333 333 333 333 332 331 330 328 325 323 327 331 330 326 327 332 335 335 333 331 333 334 334 331 328 330 332 334 334 334 334 335 336
347 346 339 331 327 326 321 317 317 321 324 329 333 336 337 338 337 337 337 336 338 339 340 340 342 343 343 343 343 344 344 344 344 344 344 344 344 344 344 343 343 343 342 342 342 342 341 340 338 336 335 334 335 335 334 333 332 332 331 330 326 323 324 324 323 325 329 332 334 336 333 332 332 332 333 332 328 327 330 332 332 330 331 333 334
347 345 342 339 333 325 322 317 316 322 326 329 333 336 337 337 337 336 336 338 339 340 341 341 343 343 344 343 343 344 343 344 343 343 343 344 344 343 344 342 342 341 341 341 342 342 341 339 337 336 336 337 337 334 334 334 333 332 331 331 326 321 322 323 324 329 332 333 335 335 332 332 332 332 332 331 330 328 328 330 329 330 332 333 333
347 345 343 342 336 326 323 317 316 323 328 332 334 336 337 336 336 336 337 338 339 340 341 342 343 343 344 343 343 343 343 343 342 343 343 343 343 343 343 342 341 341 341 341 341 341 341 339 338 338 339 339 336 332 332 333 333 333 332 331 325 319 324 327 329 331 333 335 335 333 332 333 332 332 331 329 329 328 327 325 323 326 330 332 333
346 345 344 343 336 328 324 318 318 323 330 337 337 335 335 336 336 337 338 339 340 341 342 342 343 343 343 343 344 343 343 342 342 342 342 342 343 343 343 342 341 341 341 341 341 340 339 339 339 339 339 336 331 330 331 331 332 333 332 331 325 322 326 329 331 331 332 334 332 332 332 333 332 331 331 331 331 331 329 329 327 325 330 332 333
346 346 345 342 335 328 325 320 320 325 333 340 339 335 334 336 338 339 340 341 342 342 343 343 343 343 343 343 343 343 343 342 342 341 341 341 341 342 342 342 341 341 340 339 339 338 338 338 339 338 334 330 328 330 331 330 331 331 331 329 324 326 330 331 333 334 334 333 333 335 333 332 332 331 331 332 333 332 332 333 333 329 329 330 331
346 345 345 343 334 328 325 322 322 327 336 341 340 336 337 339 340 341 342 343 343 343 343 343 343 343 343 343 343 342 342 341 341 340 339 338 336 336 337 340 341 340 340 338 337 336 337 338 338 334 328 327 330 332 330 330 330 330 330 327 324 328 331 332 334 335 334 333 333 334 333 333 333 332 331 332 333 332 331 332 332 331 331 330 330
346 344 346 342 333 327 326 325 325 330 339 341 340 339 342 343 343 343 342 343 343 344 343 343 343 343 343 342 342 341 340 339 338 337 336 335 334 333 333 335 337 338 338 337 336 336 337 335 333 328 325 329 331 331 329 329 329 328 327 326 327 330 332 333 336 336 332 332 332 332 334 335 335 334 333 334 334 331 331 331 332 333 333 333 333
344 345 345 340 332 327 327 328 328 333 339 340 340 340 342 343 343 344 343 343 343 343 343 343 343 342 343 342 341 339 338 337 335 335 335 334 334 334 332 332 333 334 333 332 331 333 333 329 327 325 326 330 332 330 329 329 329 327 323 324 329 331 332 334 336 335 332 334 334 335 336 336 336 335 335 335 335 334 334 334 335 335 334 334 334
344 346 345 340 337 331 329 331 330 334 339 340 341 341 342 342 343 344 343 343 343 343 342 343 343 343 342 341 340 338 337 334 331 330 330 330 329 328 327 329 330 331 330 328 326 326 327 326 326 325 327 331 331 329 329 330 330 326 321 324 330 331 333 334 335 334 333 334 334 337 337 337 336 335 336 336 335 335 335 335 335 335 334 334 333
346 347 344 342 341 336 332 331 332 335 338 340 340 341 341 341 343 343 343 343 343 343 343 343 343 343 342 341 339 337 336 334 331 326 325 326 326 324 321 322 324 327 327 324 322 322 324 326 325 325 329 332 331 330 330 330 329 325 320 325 331 332 333 335 334 334 333 333 334 336 338 337 335 335 336 336 335 334 334 334 334 333 333 332 331
346 346 344 343 342 340 336 332 335 337 338 339 340 341 341 341 342 343 343 343 343 343 343 343 342 342 342 340 338 337 336 335 332 327 325 326 328 327 322 317 316 322 324 322 321 320 323 325 324 327 330 332 332 330 330 330 330 325 321 326 332 332 334 336 335 334 334 333 334 336 338 336 333 335 335 334 334 333 332 331 332 331 331 330 330
345 345 344 343 342 342 339 336 338 338 338 340 340 340 340 341 342 343 343 342 343 343 342 343 343 342 340 339 338 337 336 335 334 330 328 328 330 330 326 319 314 319 325 324 321 319 322 323 324 328 331 332 332 331 330 331 330 327 323 326 331 333 335 337 336 335 335 335 334 336 337 333 331 334 335 334 333 332 331 331 331 329 330 330 329
345 344 344 343 343 342 341 339 338 337 338 340 340 340 340 341 342 343 343 342 342 342 343 342 342 342 340 340 338 337 336 335 333 331 328 329 332 332 329 322 315 317 322 322 317 318 322 323 326 329 331 332 331 332 331 330 331 329 326 327 331 334 335 337 337 335 334 335 334 336 338 333 330 333 334 334 333 332 331 331 331 329 329 328 327
345 344 344 343 344 342 342 340 339 339 339 339 339 339 339 340 341 343 343 342 342 342 343 342 342 341 340 340 338 337 337 336 334 331 328 328 330 331 329 324 317 316 318 318 315 318 322 324 328 330 331 332 331 332 331 331 331 331 329 330 333 335 335 337 337 333 334 336 335 337 338 333 328 331 334 334 332 332 331 331 330 329 329 328 327
345 345 344 343 343 343 343 341 340 341 340 340 339 338 338 340 341 342 342 342 342 342 342 342 342 341 340 339 338 337 336 335 334 331 329 327 330 331 330 327 321 318 318 317 316 319 322 325 328 330 331 332 331 331 331 331 331 331 331 332 334 336 336 337 336 334 335 335 336 338 334 327 325 330 333 333 332 332 330 330 329 329 329 328 328
346 345 344 343 343 344 343 342 342 341 341 341 339 338 338 340 340 341 342 341 342 341 341 341 341 341 340 339 337 338 337 335 335 333 329 328 332 332 330 329 323 318 318 318 318 321 323 325 328 330 331 331 332 331 331 330 331 331 331 333 334 336 337 337 335 333 334 332 336 337 329 323 324 330 332 332 332 331 330 329 328 328 328 327 327
346 345 344 343 344 344 344 343 343 342 342 341 340 339 337 338 338 340 341 341 341 341 340 340 340 340 338 338 339 341 339 339 339 337 333 330 329 329 329 329 326 320 318 318 320 321 323 325 328 330 331 331 332 331 331 331 331 331 331 332 334 337 338 337 334 334 333 331 336 336 328 324 325 330 332 331 331 330 329 329 328 328 327 327 328
346 345 344 344 345 345 344 344 343 343 343 341 341 338 335 336 336 339 341 341 341 340 340 340 340 339 336 338 340 340 339 339 341 340 339 337 330 327 329 329 328 324 319 317 319 321 322 325 328 329 331 331 331 334 334 332 331 332 332 330 333 338 337 335 335 333 333 332 337 335 330 327 326 330 332 331 331 330 329 328 328 328 327 327 328
346 346 345 345 345 344 344 344 343 343 342 341 341 338 336 336 336 338 340 341 340 339 340 339 340 339 336 339 339 337 337 338 340 339 339 339 333 328 329 328 329 328 324 321 317 318 320 323 327 328 331 330 333 339 338 336 333 331 331 329 334 339 336 335 335 333 333 332 336 334 331 328 327 330 332 331 330 330 329 328 328 327 327 327 328
346 346 346 345 344 344 344 343 343 342 341 341 340 338 338 337 336 336 339 340 338 338 339 338 339 339 338 338 337 336 336 336 335 334 335 337 335 330 328 327 328 329 327 327 323 320 319 319 322 325 328 329 334 339 338 338 338 334 333 334 337 337 335 336 334 334 333 333 335 334 331 329 327 329 331 331 330 330 329 328 328 327 327 327 328
346 345 345 345 344 344 344 342 342 341 340 340 340 339 338 337 337 336 337 338 337 337 338 338 338 338 337 337 336 335 336 335 333 334 336 338 338 336 334 333 335 335 332 334 334 331 326 322 323 324 325 329 334 336 334 334 337 337 337 337 337 336 334 334 333 334 334 335 336 333 331 329 327 327 330 331 330 330 329 328 329 328 327 326 327
345 345 345 344 344 344 343 342 341 341 340 340 339 338 336 336 336 336 336 337 335 336 336 336 337 337 336 335 336 336 337 337 337 337 336 336 337 337 338 337 338 337 335 337 338 337 336 333 332 329 328 331 334 334 334 333 333 334 335 336 336 335 334 333 333 333 334 336 337 335 332 331 329 327 328 330 330 330 329 328 329 328 327 326 326
345 345 344 344 343 343 342 341 341 339 339 338 337 336 335 335 336 336 337 337 335 336 336 335 336 336 335 335 337 338 338 338 339 339 338 337 337 337 337 337 336 337 337 336 335 336 336 335 335 333 332 332 332 333 334 334 333 332 332 334 336 335 334 333 333 334 335 337 337 336 334 332 331 328 327 328 330 330 329 328 329 328 327 326 325
345 344 344 343 343 343 342 341 339 337 338 337 336 335 335 337 336 336 336 336 335 335 335 334 335 335 335 337 339 339 339 339 340 341 341 341 341 340 340 339 338 339 339 337 336 336 335 334 334 334 334 331 329 330 333 334 335 334 332 332 333 335 335 334 334 335 336 336 337 336 334 333 332 330 327 327 329 330 329 328 328 328 328 326 324
344 344 343 343 342 342 341 339 337 336 336 336 335 335 336 338 336 335 335 335 335 335 335 335 336 336 337 339 340 339 339 340 342 342 342 342 342 342 341 340 340 340 341 340 340 339 337 336 335 334 334 333 331 330 331 333 333 335 335 332 332 333 334 335 334 335 336 336 337 336 336 335 334 333 329 327 328 330 329 328 329 329 328 327 325
344 344 343 343 342 341 339 337 336 335 335 334 334 335 336 337 336 335 335 336 336 336 336 337 337 337 338 339 340 340 341 342 343 343 343 343 343 342 342 340 340 340 340 340 340 339 339 339 338 336 335 334 334 333 333 332 332 333 335 334 333 333 334 336 335 335 337 336 336 336 336 337 336 334 331 328 328 329 329 330 330 330 329 329 327
344 343 342 342 341 339 338 336 335 334 334 334 334 335 336 336 336 336 337 337 338 338 339 339 339 340 340 340 341 341 342 343 343 343 342 343 343 342 342 340 340 339 338 339 339 339 339 340 340 339 338 337 336 335 335 334 334 332 332 334 334 334 334 336 336 336 336 336 337 336 335 336 336 336 334 330 328 328 329 330 331 330 330 329 329
343 342 342 341 340 338 337 336 336 335 335 335 335 336 336 337 338 338 338 339 340 340 341 341 342 342 342 341 341 341 342 341 341 341 341 342 342 343 342 341 340 339 339 340 340 340 340 340 341 340 341 340 337 336 335 335 335 334 332 332 333 335 335 336 337 337 337 337 337 336 335 335 335 335 336 333 329 328 328 330 331 331 330 330 329
343 342 341 340 339 337 336 336 337 337 336 335 336 337 337 338 339 340 341 341 341 341 341 340 342 342 341 341 341 341 340 341 340 339 340 341 342 343 343 342 341 340 341 342 341 341 341 341 341 340 341 340 339 338 336 336 335 335 334 333 333 333 334 336 337 338 336 336 335 333 332 334 335 334 336 334 331 328 327 328 330 331 331 330 330
342 341 340 339 338 337 337 338 338 338 337 337 338 338 339 340 341 341 342 342 341 341 340 339 341 342 341 341 341 341 340 341 341 340 339 340 341 342 342 342 342 341 342 342 342 341 341 341 341 340 340 340 340 339 338 338 337 336 335 334 334 333 334 334 336 337 335 334 335 331 327 329 333 334 334 334 333 330 328 326 328 331 331 331 331
341 341 340 338 337 339 339 340 339 339 338 339 341 341 341 341 341 341 342 342 341 341 341 340 341 342 341 341 340 340 341 341 341 341 340 340 340 341 341 341 341 341 341 342 341 341 341 341 340 340 340 340 340 339 339 339 339 339 337 335 335 334 333 334 336 337 336 334 335 332 328 326 326 329 333 334 334 333 331 328 326 329 331 332 331
341 340 339 338 339 341 341 341 340 340 341 342 343 343 342 342 341 342 343 343 342 342 342 341 341 341 341 341 341 340 341 340 340 341 341 341 341 341 341 341 340 340 340 341 340 339 339 339 339 339 339 340 339 339 339 339 339 339 338 338 337 336 335 336 336 336 336 335 334 333 331 330 327 329 333 334 335 334 334 332 328 326 329 331 332
341 340 339 339 341 341 342 343 342 342 343 343 342 342 343 342 342 342 342 343 342 342 341 342 341 341 341 341 341 341 341 341 341 341 342 341 341 340 340 341 340 340 339 339 339 338 338 337 337 337 337 337 337 337 338 338 339 338 338 338 338 338 337 338 337 334 334 334 334 334 332 332 332 333 334 333 334 334 334 334 331 328 327 329 332
340 340 339 340 342 342 343 344 343 342 342 341 341 341 342 342 341 341 341 342 342 342 341 342 342 341 342 341 341 342 342 343 342 341 342 341 341 341 341 341 341 340 340 339 338 338 337 337 337 337 336 337 338 337 337 337 337 338 338 338 338 337 337 338 338 336 335 334 334 334 332 331 333 335 335 333 334 334 334 334 334 331 327 327 330
341 340 341 342 342 341 342 342 342 341 340 340 340 340 342 341 341 340 339 340 341 342 341 341 342 341 341 342 342 343 342 342 341 341 341 341 342 342 342 342 341 341 341 339 337 336 336 337 336 336 337 337 338 338 338 338 338 338 337 338 338 338 338 338 337 337 337 337 335 334 334 332 332 335 335 335 335 335 335 334 334 333 329 327 327
341 341 341 342 340 339 340 341 341 341 339 340 340 341 342 339 339 338 337 338 339 341 342 341 341 341 341 342 342 342 341 341 341 341 342 342 342 342 342 343 342 341 340 339 337 336 336 336 336 336 337 337 337 337 338 337 338 338 337 338 338 338 338 337 337 337 337 337 336 336 336 335 333 333 334 336 336 337 336 335 334 333 332 330 328
337 338 337 337 336 336 339 340 340 340 340 339 340 341 340 338 336 333 334 338 339 341 342 341 341 341 341 341 341 341 341 340 340 341 342 342 341 341 341 342 341 339 338 338 337 336 336 336 337 337 337 337 338 338 337 336 336 337 337 337 337 337 338 337 337 337 337 337 337 337 336 336 335 333 334 335 336 336 336 336 335 334 334 333 331
336 335 334 334 334 333 335 339 340 339 340 340 339 339 337 337 336 332 333 338 340 341 340 340 341 341 340 340 339 339 339 339 339 339 340 340 339 339 339 339 338 337 338 337 336 336 336 337 338 337 337 337 337 337 337 337 337 337 336 335 336 336 336 338 338 337 337 337 336 337 336 336 335 335 335 335 336 336 335 335 335 335 334 333 333
336 334 333 334 334 333 334 338 339 339 340 340 339 337 336 337 336 334 336 339 339 340 340 339 340 339 338 338 337 337 337 337 337 336 337 337 337 337 337 337 336 336 337 336 335 335 335 336 337 337 337 337 336 336 336 337 337 337 336 334 335 335 335 337 337 336 336 336 336 337 336 335 336 335 335 335 335 335 335 336 335 334 334 333 333
334 333 332 332 333 335 336 338 338 337 338 338 337 338 337 336 337 337 339 339 338 339 339 338 337 337 337 336 335 335 335 335 335 334 335 335 335 335 335 335 335 335 335 335 335 335 335 335 336 337 336 336 336 335 335 336 337 336 336 334 334 334 335 336 336 335 337 337 336 335 335 335 335 336 336 336 335 335 335 335 335 334 334 334 333
334 333 332 333 333 335 337 336 335 335 336 337 337 337 335 334 337 339 339 339 338 338 337 337 336 336 336 335 334 334 333 333 333 333 333 333 334 334 333 334 334 334 334 334 334 334 334 334 335 335 335 335 336 335 335 335 336 336 336 335 334 334 334 334 335 335 336 337 335 334 334 335 335 336 338 337 335 334 334 334 334 334 333 333 333
334 333 334 334 333 334 335 334 334 335 336 338 338 336 334 335 337 339 339 338 337 337 337 336 335 335 335 335 333 332 332 332 331 331 331 331 332 332 332 333 333 333 333 333 333 334 334 334 334 334 334 334 335 335 334 334 335 336 336 335 333 333 335 334 334 334 334 335 335 334 334 334 335 336 337 336 334 334 334 334 334 334 333 333 333
335 335 335 334 333 334 333 333 335 337 336 337 337 335 335 337 338 338 338 337 337 336 335 335 335 334 334 333 332 331 330 329 329 329 329 329 330 331 331 331 331 332 331 332 332 332 332 333 333 333 333 334 334 334 334 334 334 335 335 335 333 332 334 335 334 334 334 334 334 334 334 334 334 335 335 335 334 334 334 333 333 333 333 334 334
336 336 335 334 333 334 332 332 334 336 335 335 335 335 335 336 337 337 337 336 336 335 334 334 334 333 333 332 331 329 328 327 327 328 327 327 327 328 328 328 328 329 328 329 330 330 330 330 331 332 332 333 333 333 333 333 334 334 334 334 333 333 334 334 334 334 334 334 334 333 334 334 335 336 335 334 335 335 335 334 333 333 334 335 333
336 335 336 334 332 334 333 333 334 334 333 334 335 335 335 336 336 336 335 334 334 334 333 333 333 333 332 330 329 328 327 326 326 326 325 326 326 325 325 325 325 326 326 326 327 327 327 327 328 329 329 330 331 332 333 333 333 333 334 334 334 334 334 334 334 333 334 335 335 334 333 334 336 336 335 334 335 335 336 336 335 335 336 334 332
335 334 335 334 333 334 333 332 333 333 334 334 334 334 334 335 335 334 334 334 333 333 333 333 332 331 330 328 327 326 326 325 325 324 323 323 324 323 323 323 323 323 323 323 324 324 324 325 325 326 327 327 328 329 329 330 331 331 332 333 334 333 334 334 333 333 333 335 334 333 332 333 334 334 334 334 335 335 335 336 337 337 336 333 332
335 333 333 333 333 333 332 332 333 333 333 333 333 333 332 333 333 333 333 333 333 332 332 331 330 329 327 327 326 325 324 324 323 322 321 321 322 321 320 321 321 321 321 321 321 321 322 322 323 324 325 325 325 326 326 326 327 328 329 330 331 331 332 333 333 333 333 334 333 332 332 332 332 332 333 333 334 335 336 336 337 337 335 333 333
Wind_Speed
19 22 24 21 19 17 16 15 14 14 15 16 16 16 16 15 14 13 12 12 13 13 13 15 16 15 14 14 12 12 13 13 13 14 14 14 13 13 14 14 14 13 13 13 13 13 13 14 14 14 14 14 13 13 13 13 13 13 12 11 11 10 11 10 10 11 11 11 9 9 12 12 11 11 10 11 12 11 10 10 11 13 15 15 15
21 22 23 22 20 18 17 15 14 15 16 17 17 16 16 15 14 13 12 12 12 12 13 15 15 14 14 13 12 13 13 13 14 14 14 14 13 13 14 14 14 14 14 14 13 13 13 14 14 13 13 12 12 13 13 13 13 12 11 10 9 8 9 9 11 12 13 12 10 9 11 12 11 11 10 10 10 11 11 12 12 12 14 14 13
22 21 23 23 21 19 17 16 15 15 16 18 17 16 16 15 15 13 13 12 12 12 14 15 15 13 12 12 13 14 14 14 14 14 14 14 14 14 15 14 15 14 14 13 13 13 13 13 13 12 12 12 12 12 12 12 12 11 11 10 8 7 7 9 10 11 11 10 10 13 13 11 11 11 10 9 9 9 9 11 11 11 12 12 12
22 21 23 23 22 19 17 16 16 16 16 17 18 17 16 15 15 14 13 12 13 14 15 15 14 13 12 13 13 14 14 14 14 14 14 14 14 14 15 15 15 14 13 13 13 12 12 13 12 12 12 12 11 11 11 11 11 11 11 11 10 8 6 7 8 10 10 8 8 12 13 11 11 10 10 8 7 7 6 7 8 10 10 10 11
22 21 23 23 22 19 18 17 17 17 17 17 18 18 17 16 15 14 14 14 15 15 15 14 14 13 13 13 13 14 14 14 14 15 14 14 14 14 14 14 14 13 13 13 12 12 12 12 12 11 11 11 10 9 9 9 10 11 11 11 11 9 8 8 9 11 11 9 6 6 9 10 10 10 9 9 8 7 7 7 8 10 11 10 8
22 21 22 22 21 20 18 18 18 18 18 17 18 18 17 16 16 15 15 15 15 15 15 14 14 14 14 14 13 14 13 14 14 14 14 14 14 14 14 13 13 13 13 12 12 11 11 11 10 10 9 9 8 8 8 8 9 10 10 11 11 11 11 12 12 11 8 6 5 5 8 10 10 10 9 8 9 8 7 6 6 8 11 11 8
21 21 21 20 21 20 18 18 19 19 19 18 17 18 18 17 17 16 15 15 15 16 15 14 14 14 14 14 14 13 14 14 14 14 14 14 14 14 13 13 12 12 12 12 11 11 11 10 9 9 8 7 7 7 8 8 8 9 10 10 10 11 14 14 13 11 9 4 4 7 9 10 10 9 9 9 9 9 9 8 7 8 10 9 8
20 20 20 20 21 20 19 19 20 21 20 18 17 18 18 18 18 17 15 16 16 16 15 15 15 14 14 14 14 14 14 14 14 14 14 14 13 13 12 12 12 11 12 11 11 10 10 9 9 8 6 6 7 8 8 8 8 8 9 9 9 11 12 14 13 11 10 7 6 9 9 10 10 10 10 10 9 9 9 10 10 9 10 9 8
21 20 19 19 22 20 19 20 21 22 20 18 17 18 18 19 18 17 17 17 16 16 15 14 15 14 14 14 14 14 14 14 13 13 13 12 12 12 11 11 12 11 10 10 10 10 9 8 8 6 6 7 8 8 8 8 7 7 8 8 8 11 11 11 11 10 8 7 8 10 10 11 11 10 10 9 9 9 8 8 11 10 10 9 8
21 20 19 19 22 21 20 21 22 22 20 18 18 19 19 19 18 18 17 17 16 15 15 14 15 15 14 14 14 13 13 13 12 11 11 10 9 9 9 10 11 10 9 8 7 8 9 7 6 6 7 9 9 9 9 9 9 7 6 6 9 10 9 6 6 8 7 8 9 10 12 12 11 11 11 10 9 8 7 6 8 10 10 9 9
21 21 18 20 23 21 21 21 22 22 20 19 19 19 18 18 18 17 17 17 16 15 14 14 14 14 14 14 13 13 12 11 10 10 9 8 7 7 8 9 9 8 8 7 6 8 8 6 6 6 8 9 9 9 9 10 10 9 7 6 9 9 8 7 7 6 7 9 9 10 10 11 11 11 11 11 9 8 7 7 8 9 9 9 9
20 21 20 21 23 22 22 21 22 21 20 19 19 19 18 18 18 17 17 17 16 15 14 14 14 14 14 13 13 12 11 9 8 8 8 7 7 6 7 7 7 7 7 7 7 7 7 6 7 7 8 9 9 10 10 10 10 9 7 7 10 10 10 10 8 6 8 8 8 9 10 11 10 10 11 10 9 9 9 8 8 8 8 8 8
20 22 22 21 21 21 22 21 21 21 20 19 18 18 17 17 17 17 17 16 16 15 15 14 15 14 13 13 12 11 10 9 7 7 6 6 6 6 5 5 6 6 6 6 6 5 6 7 7 7 7 8 9 9 9 9 9 9 8 9 11 11 11 12 9 6 8 8 8 8 9 10 9 9 9 8 8 7 8 8 7 6 6 6 6
22 23 21 20 20 20 21 21 21 21 20 19 18 18 17 17 17 17 17 16 16 15 15 14 14 14 13 12 11 10 10 8 7 6 6 6 5 5 4 4 5 5 5 5 5 6 7 8 7 6 7 8 8 8 9 9 9 9 9 10 11 10 9 10 8 6 7 7 8 8 9 9 8 8 8 7 6 5 5 5 5 4 4 3 3
21 21 20 20 20 19 20 21 21 21 21 19 18 18 18 17 17 17 17 16 15 15 14 14 14 13 12 12 11 10 9 8 7 7 6 6 6 6 6 5 4 6 6 6 7 8 9 8 7 6 6 7 7 7 8 9 9 10 9 9 8 7 6 6 5 5 5 5 7 8 9 6 6 7 6 5 4 4 3 2 2 2 3 3 3
20 20 21 21 21 19 19 20 20 21 21 19 18 18 18 17 17 17 16 15 15 14 14 14 14 12 12 11 10 10 9 8 7 7 7 7 7 7 7 6 5 7 8 8 9 9 9 9 7 6 6 6 6 6 7 8 9 10 9 7 7 6 7 7 4 3 4 4 6 6 7 5 4 6 4 3 2 2 2 2 2 1 2 2 3
20 20 21 21 21 20 18 18 19 20 20 20 18 18 17 17 17 16 15 15 14 14 14 13 13 12 11 10 10 9 8 8 7 8 8 7 7 7 7 7 6 6 8 8 9 11 10 9 7 6 5 6 5 5 6 6 8 9 10 9 9 9 8 8 4 3 4 4 4 5 7 4 2 4 2 1 1 1 1 1 1 1 0 0 1
20 20 20 21 20 19 19 18 19 19 17 17 17 16 16 17 17 15 14 14 14 14 13 13 12 12 11 10 9 8 7 7 7 7 7 8 8 7 7 7 6 6 7 8 10 12 11 9 7 6 5 5 5 5 5 5 6 7 9 11 11 10 9 7 4 4 4 2 4 6 5 2 2 2 2 1 1 1 1 0 1 1 2 2 1
19 20 20 20 19 20 20 19 19 18 16 15 14 14 16 17 16 15 14 14 14 13 12 12 11 11 10 8 7 5 5 5 6 6 6 7 8 7 7 7 6 6 6 8 10 11 10 9 7 5 4 4 4 4 5 5 5 5 7 9 9 8 8 6 2 2 3 1 4 5 0 4 3 2 2 0 1 1 1 1 2 2 3 3 1
18 19 20 19 19 21 21 19 19 18 17 16 14 13 14 16 16 15 14 13 13 13 12 11 10 9 8 6 4 4 5 5 6 6 5 6 6 6 7 7 6 6 6 7 9 10 9 8 7 5 4 3 3 4 5 5 4 4 5 7 7 7 7 6 2 1 2 2 3 3 5 5 3 4 3 1 0 1 2 2 3 2 3 2 1
17 18 18 19 19 20 20 19 19 19 18 18 15 13 13 14 13 14 14 13 13 12 11 10 9 8 6 5 4 5 5 5 6 6 4 4 4 5 6 7 6 5 5 6 7 8 8 8 7 5 4 3 2 3 5 6 5 4 4 5 5 5 4 3 2 1 0 1 4 3 7 6 3 5 4 2 1 1 3 3 3 2 2 2 2
18 18 17 18 19 19 19 19 19 19 18 18 16 14 13 12 12 13 13 12 12 11 10 9 9 8 6 5 5 4 4 4 5 5 4 3 3 3 5 5 5 5 4 5 6 6 7 7 7 6 4 2 2 4 5 5 6 5 5 4 3 1 2 2 3 2 2 1 4 4 7 6 2 4 4 3 2 3 4 3 3 2 2 2 3
18 18 18 18 18 18 18 18 19 18 17 17 16 15 14 13 13 14 13 12 12 11 10 10 10 9 6 6 4 3 4 3 4 5 5 4 2 1 2 4 4 5 4 4 4 5 6 6 7 6 6 3 3 6 7 6 6 5 6 4 2 5 4 3 4 4 3 1 4 6 7 5 1 4 4 4 4 4 4 4 3 3 4 4 4
18 18 18 17 17 17 17 18 18 17 16 16 15 14 15 14 14 14 13 13 12 10 10 9 9 8 7 5 4 4 5 3 5 5 5 5 3 1 2 2 3 2 3 3 2 2 4 6 7 7 8 6 6 9 9 8 8 7 7 6 6 6 5 5 6 5 4 2 5 8 7 6 2 4 6 6 5 5 5 5 4 4 5 4 5
18 17 17 17 16 17 18 18 16 15 14 14 14 14 15 14 14 13 13 12 11 10 9 8 7 7 6 5 5 6 6 5 5 6 5 6 5 4 3 3 3 2 2 3 3 3 4 6 8 8 9 10 10 11 10 8 9 9 9 8 8 7 7 8 7 6 5 4 7 9 7 6 4 4 7 7 6 6 6 6 5 5 5 6 8
18 16 17 17 17 17 17 17 15 14 12 12 13 14 13 12 13 12 12 12 10 10 9 8 6 6 6 5 6 7 6 6 6 6 5 5 6 6 5 5 5 4 4 4 5 5 5 7 8 8 9 10 11 10 10 9 8 9 10 9 9 8 8 9 8 7 7 6 8 9 8 7 6 6 6 7 7 7 7 7 5 5 6 8 9
16 16 17 17 17 16 16 16 15 14 13 12 12 12 12 11 12 12 12 11 10 10 9 8 7 7 7 7 7 7 6 6 5 5 4 4 4 3 3 4 3 4 4 4 5 5 6 7 8 8 8 10 10 10 10 10 11 11 10 9 9 10 9 9 9 9 8 7 9 10 10 10 9 8 7 7 8 8 9 8 7 7 8 10 10
15 16 17 17 17 17 16 15 15 14 14 13 12 12 12 11 11 11 12 11 11 10 9 8 8 8 8 8 8 6 5 4 4 4 3 3 3 2 3 3 3 3 3 4 4 4 6 6 7 8 8 9 10 11 10 11 11 11 11 11 10 11 10 10 10 9 9 8 9 11 12 11 11 10 9 8 8 9 10 9 9 9 8 10 10
17 16 17 17 17 17 16 15 15 15 14 14 13 13 12 12 12 12 12 12 11 10 10 9 9 9 9 8 6 5 4 3 3 3 3 3 2 2 3 2 3 3 3 4 5 4 5 7 7 8 9 9 9 10 11 12 12 11 11 12 11 12 11 11 11 11 10 9 8 9 11 13 13 12 11 10 9 10 11 9 10 9 9 9 9
19 17 16 17 17 17 16 16 16 15 14 14 13 14 14 13 13 12 13 12 11 11 11 10 9 8 8 7 5 5 4 3 3 3 2 3 2 2 3 3 3 5 5 6 6 5 6 7 7 8 9 9 9 9 10 11 13 13 12 12 13 12 12 12 12 11 11 11 10 8 9 12 14 16 14 12 11 11 12 12 11 10 10 10 9
20 18 17 18 18 17 17 16 15 15 15 14 14 14 14 14 14 14 14 12 12 12 10 9 8 7 6 6 6 4 3 3 2 2 2 3 3 3 4 3 5 6 6 6 5 5 7 8 8 8 9 9 10 10 10 11 12 14 13 14 13 13 14 13 13 12 11 10 10 10 10 12 14 17 17 15 14 13 14 14 13 12 11 12 11
20 19 18 19 19 18 18 17 15 15 15 15 15 15 15 15 14 14 13 12 12 11 10 9 8 6 6 6 6 4 3 3 2 1 2 2 2 3 3 3 4 4 5 5 5 7 8 8 9 8 9 10 11 11 11 12 13 14 14 15 14 14 14 14 13 12 12 11 12 12 11 13 15 17 19 19 17 16 15 15 15 14 13 13 12
19 19 18 19 19 19 17 17 16 15 15 16 16 15 15 15 14 13 12 12 11 11 10 10 8 6 6 6 5 5 4 3 3 2 2 2 2 2 3 3 3 3 4 4 5 7 8 8 8 9 9 10 11 12 12 12 14 14 14 15 15 15 14 14 14 13 14 15 15 15 14 14 14 17 20 21 19 18 17 17 16 15 14 14 14
18 18 18 19 19 18 16 16 17 17 17 17 16 15 15 15 14 12 12 11 10 10 9 9 8 7 6 6 5 5 5 4 4 4 2 2 2 2 2 2 2 3 3 4 5 6 7 8 8 8 9 10 11 12 12 13 14 14 15 16 15 16 15 15 15 14 16 16 16 18 18 17 16 17 20 22 21 19 19 19 17 17 16 16 15
19 18 18 19 18 17 16 17 18 18 17 16 15 15 14 14 13 12 11 10 9 9 9 9 9 8 7 7 7 6 5 5 4 4 3 3 2 2 2 2 2 3 3 4 5 6 6 7 8 9 10 10 11 12 12 12 13 14 15 16 16 17 17 16 16 16 16 16 17 18 18 20 21 20 21 22 22 20 19 19 19 19 18 17 16
19 19 19 19 17 17 18 18 19 18 16 15 15 14 13 12 12 12 11 10 9 9 10 9 9 8 7 7 7 6 5 4 4 3 3 3 2 2 2 2 2 3 3 5 6 6 6 8 8 9 11 11 12 12 12 12 13 14 14 15 15 16 17 17 18 18 18 18 19 18 17 20 22 21 21 22 23 23 21 19 19 20 20 18 17
18 19 19 18 18 18 17 17 17 16 14 15 15 14 12 12 12 12 11 10 10 9 10 9 8 8 7 7 6 6 5 4 3 3 2 2 2 1 1 1 2 3 4 5 6 6 7 8 9 9 11 12 13 13 13 13 13 13 13 14 14 15 16 17 20 21 20 21 20 19 18 19 19 19 20 22 23 23 21 19 19 19 21 20 19
17 17 17 16 16 16 15 15 14 14 14 15 15 13 12 11 11 12 12 12 11 10 10 9 8 8 7 6 6 5 4 3 2 1 1 1 2 1 1 1 2 3 5 6 6 7 7 8 10 10 11 11 13 13 13 13 13 13 14 14 15 17 16 16 20 22 21 21 20 20 20 19 18 18 19 22 22 20 20 19 18 18 20 21 21
14 14 14 13 12 12 13 15 15 14 15 16 15 12 11 10 10 12 12 11 11 10 9 9 8 8 7 6 5 4 3 2 1 0 1 2 2 2 2 3 3 4 5 7 7 7 8 9 10 11 11 11 12 12 12 12 12 13 14 15 16 17 16 17 19 20 19 20 20 20 20 18 18 17 17 19 19 18 18 18 19 20 20 22 23
7 9 9 9 10 11 12 14 14 14 14 15 13 10 9 10 11 12 11 10 11 10 9 9 8 8 7 6 5 4 3 2 2 2 2 3 3 2 3 4 5 5 6 8 8 8 9 10 10 11 11 11 11 11 11 11 12 13 14 15 16 16 18 20 20 19 19 20 19 18 18 18 19 19 18 18 18 18 18 18 20 21 19 20 23
6 6 5 4 9 13 13 13 13 12 14 13 11 9 10 12 11 10 11 10 11 11 11 11 9 9 8 7 6 5 4 4 4 3 3 4 4 4 4 5 6 6 7 8 8 9 9 10 10 10 10 11 11 10 10 11 12 12 12 13 15 17 18 18 18 16 17 18 17 18 18 18 19 19 18 18 18 19 18 17 18 20 19 19 21
9 9 6 5 10 11 10 13 13 12 14 11 8 10 11 12 12 11 12 10 11 10 12 12 10 10 9 8 8 7 6 6 6 6 5 5 5 5 5 6 7 7 8 8 8 9 9 9 9 9 9 9 10 9 9 10 10 11 11 11 12 13 12 12 13 14 15 17 16 17 18 19 19 17 16 16 16 20 20 18 17 19 20 21 21
13 11 9 10 12 9 8 13 13 11 12 10 9 10 10 9 11 11 10 11 12 11 12 11 10 10 10 9 8 8 7 7 7 7 7 8 8 8 8 8 8 9 9 9 9 9 9 9 9 9 10 9 9 8 8 8 10 12 11 9 8 8 6 3 8 12 15 16 15 17 19 18 19 17 17 19 18 19 21 20 20 21 21 21 22
12 10 10 10 9 8 8 12 11 8 9 9 9 9 9 9 10 10 10 12 13 12 11 10 9 9 9 9 8 8 7 6 7 7 7 8 8 8 9 9 9 9 10 10 10 10 10 10 9 9 10 10 10 9 8 8 9 9 8 7 7 7 5 2 7 11 10 12 14 18 19 17 17 17 17 20 20 20 20 20 22 23 22 23 24
10 11 11 8 7 7 9 10 9 7 8 9 9 9 9 11 12 11 11 12 12 10 9 9 8 7 8 9 8 8 7 7 7 7 6 7 8 8 8 8 9 9 9 10 11 11 11 11 11 11 10 11 12 12 10 8 7 7 8 8 6 5 5 7 11 9 5 9 12 15 18 16 16 15 16 20 23 24 24 22 21 23 24 25 25
10 12 11 9 8 8 8 9 8 8 9 10 10 9 10 10 10 9 10 10 9 8 9 9 8 7 8 8 8 8 8 8 7 7 7 7 8 8 8 8 9 9 9 9 10 11 12 12 12 12 12 11 12 13 12 10 8 9 9 9 9 8 8 9 10 7 7 10 10 11 14 15 16 16 17 21 23 24 25 23 22 23 23 23 23
12 13 12 12 11 7 7 8 8 9 9 8 8 8 8 7 7 8 9 9 9 9 8 8 8 7 7 8 9 8 8 8 8 8 8 8 8 9 9 9 9 9 9 9 10 11 12 13 13 13 14 13 13 13 14 13 12 11 9 10 13 14 13 11 9 7 8 9 8 9 11 12 15 16 17 19 20 21 22 22 23 24 24 24 25
14 14 15 15 12 8 7 9 8 7 7 7 8 7 7 9 10 10 10 10 10 9 7 7 7 7 8 8 8 8 8 8 9 9 9 9 8 9 9 9 9 9 10 10 10 11 12 13 14 14 14 14 14 15 15 15 14 13 12 12 14 14 14 14 12 9 8 8 9 10 10 10 13 15 16 17 17 16 17 18 21 23 24 27 27
15 17 18 17 15 12 10 8 8 8 8 9 8 8 9 10 10 9 9 9 9 8 7 7 7 7 8 8 7 8 8 8 9 9 9 9 9 9 9 9 9 9 10 10 10 11 12 13 14 14 14 14 15 15 16 16 16 16 15 15 15 15 14 14 14 12 10 10 9 8 10 10 11 15 17 18 18 16 15 17 20 21 24 28 27
16 21 21 20 18 15 12 10 9 9 8 8 9 9 10 10 9 8 7 7 7 7 7 7 7 7 8 8 7 7 8 8 8 8 9 9 8 9 9 9 9 9 10 11 11 12 12 12 13 13 13 14 14 15 17 17 17 18 17 17 16 16 14 12 13 13 11 10 9 9 12 12 11 13 14 16 18 18 17 17 18 20 23 25 26
18 22 22 21 19 16 13 11 10 8 7 8 9 9 9 8 8 8 8 7 7 7 7 7 7 7 7 7 7 7 7 7 7 8 9 9 8 9 9 9 9 9 10 11 11 12 12 12 12 12 12 13 14 15 16 16 16 18 18 18 18 17 16 14 15 16 13 11 10 10 12 15 15 15 14 14 15 16 17 17 17 18 21 22 22
Wind_Direction
137 132 142 146 139 136 136 136 140 137 135 131 127 132 132 131 135 135 133 131 133 129 124 123 122 122 121 119 115 112 109 106 105 101 99 97 98 99 99 102 101 101 99 97 96 95 95 94 92 89 88 87 86 85 85 84 82 80 78 78 80 82 87 86 84 80 73 65 65 82 87 82 77 76 73 73 78 76 73 74 74 72 72 71 69
135 133 142 143 139 136 137 139 142 140 138 135 130 132 133 131 132 133 131 130 130 126 123 124 123 124 124 123 119 116 111 107 105 101 101 100 100 100 100 101 101 99 98 96 94 94 95 93 91 89 87 87 86 86 84 81 78 74 70 69 70 80 88 87 86 76 67 61 64 87 94 85 79 77 72 73 84 86 82 78 76 72 72 72 69
134 134 141 142 139 135 138 140 143 144 140 137 134 135 137 133 132 133 132 131 129 127 126 126 126 128 128 125 121 116 111 108 105 102 102 103 102 101 103 102 99 96 95 95 93 94 94 92 91 89 88 88 88 83 78 73 68 65 62 60 61 75 89 95 94 76 68 71 79 84 83 85 83 76 69 73 90 90 83 82 83 77 78 76 67
135 135 140 143 137 135 137 142 145 145 142 138 135 136 141 138 136 135 134 133 130 128 127 128 130 131 127 124 121 116 113 110 107 104 103 102 102 102 102 101 98 96 95 94 95 95 92 91 91 90 90 89 85 76 68 62 57 56 54 55 57 65 87 99 93 79 80 90 99 88 77 85 87 77 70 72 89 89 74 75 81 74 75 79 80
137 137 140 141 137 136 136 143 147 146 144 139 136 134 136 137 137 136 134 132 130 130 130 132 132 128 124 124 122 117 114 111 109 107 106 104 104 103 102 100 99 99 97 94 94 92 91 92 93 93 91 85 75 67 60 53 47 49 50 53 54 59 82 97 96 90 90 88 88 85 75 84 88 82 74 69 76 81 75 68 71 71 66 63 76
139 139 138 138 138 137 137 144 147 146 143 138 137 134 132 132 133 134 133 132 134 135 135 136 132 128 126 124 120 116 114 111 110 108 107 107 105 104 102 102 101 100 98 95 92 90 91 91 94 93 87 79 69 63 57 48 41 43 49 52 52 64 86 94 97 94 92 87 72 74 81 85 89 84 77 75 72 71 74 69 70 75 72 62 52
139 139 138 137 138 137 137 144 148 146 140 136 135 134 133 131 132 132 133 136 140 141 140 139 134 131 127 124 120 116 113 111 110 109 107 105 104 103 102 102 100 98 95 93 92 89 87 85 86 82 75 75 69 58 49 42 36 38 46 50 57 76 92 90 85 77 63 46 62 83 85 84 89 84 76 77 70 60 56 50 62 79 82 74 54
142 141 137 136 139 136 137 143 146 145 139 134 134 134 134 133 134 134 137 141 143 143 143 141 135 132 128 124 120 117 114 113 112 110 108 107 107 106 108 107 103 103 102 101 99 94 92 90 85 81 76 75 65 51 43 38 34 35 42 48 68 86 94 88 81 72 57 48 72 83 86 89 88 87 83 77 69 57 50 42 48 70 78 74 65
145 142 136 136 139 135 135 141 144 144 139 135 135 135 134 135 136 138 141 143 144 144 144 142 135 132 129 125 121 118 115 114 113 112 110 110 109 110 114 117 115 115 116 117 114 105 98 94 91 95 89 71 55 48 45 44 40 38 42 51 82 95 91 85 78 62 48 63 78 72 80 92 88 89 94 84 71 61 62 57 50 59 68 67 70
144 140 135 135 138 135 135 140 143 142 138 136 137 135 135 136 137 140 143 143 144 144 143 140 136 133 130 126 122 118 116 115 113 112 112 112 111 113 120 125 124 116 110 115 124 117 103 98 103 98 79 62 50 49 52 51 46 44 48 69 99 104 94 81 56 41 52 75 82 79 80 87 88 89 94 85 76 74 83 86 69 62 64 61 61
141 137 132 136 138 135 135 138 140 141 137 138 139 136 137 138 139 141 143 144 145 144 142 138 136 135 130 127 123 120 117 115 112 109 108 111 111 115 123 134 137 127 119 118 125 128 120 118 115 92 71 58 51 54 54 49 44 45 54 91 108 103 89 70 35 36 78 83 87 97 87 84 89 90 91 85 82 93 96 86 79 72 72 70 66
143 134 130 137 137 135 136 138 139 139 138 139 140 139 139 140 141 143 144 146 146 146 143 141 138 134 131 129 124 120 114 111 109 106 107 110 113 117 123 133 143 147 147 139 134 141 142 123 102 85 70 59 57 60 55 46 43 46 59 101 110 95 78 63 44 56 83 80 84 92 87 85 89 90 90 89 86 91 93 87 86 84 81 80 76
139 128 131 134 132 135 136 138 139 139 139 139 141 140 141 142 144 146 147 147 147 148 146 144 138 133 131 127 123 117 109 103 99 102 107 112 120 125 130 139 150 157 159 158 150 150 141 117 99 87 71 61 66 69 60 49 45 48 72 108 108 91 76 59 50 71 78 76 84 84 81 82 88 91 90 91 90 91 95 94 92 91 89 90 86
128 122 131 131 130 135 136 140 139 139 140 140 142 142 143 145 148 149 148 150 150 149 148 144 138 134 129 125 121 114 106 97 92 97 104 104 103 100 105 135 156 162 162 163 158 152 139 122 110 95 73 64 72 78 70 57 52 54 81 112 108 97 85 63 55 77 78 78 84 85 84 86 92 92 93 88 81 88 98 100 97 91 88 91 88
127 126 135 131 131 134 136 139 138 140 140 141 145 144 145 149 151 150 150 152 152 150 149 145 140 135 128 123 118 110 102 95 91 92 96 92 84 76 75 94 128 142 143 143 147 153 146 131 119 102 75 66 74 86 79 67 63 62 84 114 112 100 85 63 61 87 87 83 85 86 85 93 106 95 92 89 79 76 74 87 90 83 79 65 64
132 135 137 133 134 134 135 136 138 140 141 143 146 148 148 151 151 150 152 152 153 152 151 148 141 135 130 124 116 108 100 94 88 88 92 89 85 77 66 69 103 130 134 141 150 154 149 137 125 105 81 72 79 92 88 76 72 69 80 104 113 98 82 71 66 97 90 88 93 89 91 99 102 95 88 82 74 47 26 45 24 6 84 71 56
136 139 139 138 136 135 135 135 138 139 142 147 148 151 150 152 153 150 152 152 153 153 151 148 141 136 132 125 119 111 101 91 82 83 90 92 91 84 65 63 93 127 138 147 155 153 148 140 130 110 89 80 87 103 103 86 77 76 78 96 108 99 91 80 62 75 82 94 95 92 115 129 78 83 92 63 48 30 19 59 17 328 25 356 35
143 144 142 143 141 138 137 136 138 136 139 145 148 152 152 154 156 152 153 153 154 154 151 147 142 137 133 128 121 109 97 84 76 82 92 93 89 86 74 67 85 117 138 148 153 152 151 145 134 117 98 84 90 114 121 107 88 82 84 96 99 93 88 76 63 83 97 107 87 101 135 200 283 97 112 61 36 17 340 325 274 293 309 306 332
150 148 147 149 147 143 139 140 141 138 138 139 143 152 156 158 158 155 155 157 156 154 153 149 143 138 134 128 118 107 91 80 76 79 95 97 89 87 87 85 90 107 132 150 155 156 155 150 142 126 109 90 90 116 134 132 109 96 95 96 87 76 61 39 23 100 116 97 91 122 244 298 265 150 123 102 35 356 336 316 288 274 279 283 256
157 153 152 153 151 146 143 146 146 146 144 139 138 146 158 160 160 159 157 160 157 155 154 148 145 141 137 136 132 127 104 99 97 88 93 100 105 107 98 100 103 111 130 150 159 163 162 159 157 148 131 106 99 122 145 149 136 125 107 97 79 61 34 8 346 56 98 84 113 146 330 321 215 149 139 201 127 334 311 309 310 282 267 273 213
159 157 156 152 149 148 147 149 151 150 144 139 139 143 156 157 157 161 160 160 155 154 156 151 153 147 144 163 157 135 118 120 118 109 97 88 123 129 106 105 109 119 139 153 163 171 174 175 174 170 160 147 142 154 163 162 162 160 129 109 85 55 14 321 281 311 183 108 144 191 330 329 193 157 164 202 197 241 264 283 309 289 268 261 241
157 157 156 151 149 150 150 149 148 147 142 139 139 141 149 150 151 160 161 158 154 156 162 159 159 150 151 168 155 135 131 136 130 125 125 116 140 141 116 117 116 122 139 160 176 183 190 191 191 191 185 192 203 187 190 183 178 179 167 139 100 328 266 251 270 273 240 140 158 224 316 325 200 160 175 201 203 241 257 265 282 271 253 229 245
159 157 154 154 153 150 149 147 145 144 144 141 139 142 147 147 150 158 163 160 156 158 163 164 162 157 160 162 155 155 146 160 168 155 162 164 171 206 158 144 130 130 139 152 180 196 211 214 210 209 202 215 218 195 203 203 200 204 191 180 244 253 232 230 253 255 249 181 184 242 297 311 225 154 185 213 210 235 248 242 250 255 247 228 231
159 156 152 154 152 148 147 145 145 145 146 143 142 148 151 152 152 158 168 166 161 164 169 167 166 160 160 159 160 173 163 192 205 178 182 190 197 223 196 171 144 132 139 143 167 208 232 235 231 231 222 228 234 222 220 208 210 231 224 225 246 241 231 238 243 248 253 197 203 244 285 298 264 177 197 219 221 226 233 227 231 243 245 233 230
155 154 149 151 149 146 146 144 144 143 145 146 144 148 154 156 155 160 168 168 167 170 173 166 161 156 159 170 175 184 181 184 186 181 188 192 191 185 186 187 176 189 197 191 214 247 266 246 239 245 240 236 240 241 243 228 214 227 229 231 241 238 239 243 242 248 249 216 220 247 276 287 276 227 207 214 223 223 227 221 219 234 241 238 237
153 153 148 148 147 146 145 143 141 142 147 150 147 147 154 156 156 162 163 167 171 167 172 169 166 165 170 183 184 188 186 176 175 180 181 184 192 188 188 188 194 211 216 219 216 233 258 240 233 244 243 237 240 245 252 256 242 235 233 233 239 242 244 246 243 244 247 236 235 251 271 279 278 261 228 214 219 225 230 221 221 235 240 247 246
153 153 149 147 146 147 146 143 142 149 154 150 149 152 155 155 156 161 158 163 166 162 169 170 170 173 179 188 190 189 181 174 172 173 174 180 189 187 188 182 205 218 214 237 230 227 243 240 236 241 244 244 246 247 247 253 253 251 247 236 236 243 249 252 251 246 245 238 236 251 268 277 277 270 252 227 217 224 232 221 227 238 237 255 256
149 150 149 147 147 147 146 145 148 156 155 148 152 155 153 152 155 158 156 159 160 161 165 165 168 172 181 191 193 194 183 173 167 170 174 180 183 182 199 196 221 233 225 253 258 247 251 253 252 252 254 254 253 250 248 248 247 250 254 248 239 242 249 253 255 253 251 245 240 251 264 274 276 271 263 246 223 221 233 222 219 229 231 253 255
147 149 149 148 147 147 148 150 153 157 156 154 154 152 151 151 155 159 159 160 160 159 160 163 166 171 181 189 193 196 186 174 173 187 187 191 195 189 212 221 231 249 259 263 263 259 262 262 258 257 256 255 257 254 251 253 251 245 248 253 249 245 246 250 253 255 257 257 255 259 264 271 276 273 265 255 235 217 227 223 213 223 228 242 247
149 149 150 151 151 151 153 156 158 158 157 158 155 151 155 156 157 159 159 162 159 157 159 163 166 168 176 181 188 194 189 182 187 203 198 207 209 197 220 223 230 249 252 251 254 256 266 269 264 262 261 256 257 256 252 254 257 251 242 245 252 252 249 249 252 254 257 258 264 276 269 267 274 276 268 256 245 223 220 220 216 225 228 233 241
151 151 152 152 154 155 157 160 159 159 159 158 155 156 158 158 157 158 161 162 157 157 157 159 160 163 171 178 187 191 197 196 188 200 196 203 201 204 224 225 235 253 258 258 264 265 264 268 269 271 274 271 268 264 259 256 259 260 252 245 245 250 249 247 247 249 253 253 258 269 264 263 274 277 272 259 246 234 223 218 220 225 226 230 234
153 156 153 150 156 159 159 160 157 159 159 155 155 158 159 159 158 155 156 155 152 153 155 159 159 163 178 185 189 186 195 192 172 183 190 193 194 199 212 222 237 257 270 271 269 265 264 267 270 274 275 275 274 270 267 265 264 265 265 261 253 250 250 246 244 243 244 244 247 251 252 262 273 271 267 261 247 237 229 219 219 223 222 224 228
154 157 152 152 160 160 158 158 157 159 156 155 157 158 157 155 153 148 147 149 152 156 160 164 161 171 185 183 184 178 176 172 152 155 173 185 185 194 201 212 236 253 262 266 266 266 270 272 272 272 270 269 269 267 267 266 266 267 269 270 266 261 259 252 248 241 241 245 247 248 246 252 264 263 258 257 250 241 235 224 216 219 223 223 224
153 154 154 158 162 158 158 157 158 160 156 157 158 153 152 150 148 147 149 154 159 159 162 166 163 172 175 164 170 170 168 166 158 165 177 197 196 205 212 213 238 255 259 262 268 271 275 279 280 279 276 273 271 270 270 268 269 270 268 269 270 268 266 261 254 249 248 248 248 252 251 247 251 255 253 251 249 243 238 231 219 214 220 224 223
152 155 159 162 162 159 158 157 159 160 157 157 151 148 150 149 150 152 155 159 161 160 163 166 164 165 159 155 162 162 167 169 171 179 186 209 214 212 216 225 253 264 264 262 269 276 276 279 283 284 284 280 276 276 275 273 273 272 272 271 270 270 270 264 256 254 255 254 251 252 251 249 250 252 251 248 246 244 237 234 227 214 213 221 223
155 158 162 163 164 162 158 156 157 156 152 149 145 145 148 149 152 155 157 158 159 160 160 159 156 155 152 153 158 160 167 174 180 193 203 223 232 225 215 227 259 270 272 275 280 284 282 283 284 283 285 285 282 281 279 278 278 276 275 274 274 275 273 268 262 260 261 260 260 256 249 250 253 251 247 244 241 242 237 230 230 221 213 215 218
158 160 164 165 164 160 153 149 148 148 144 144 144 145 149 153 155 156 158 158 159 159 155 152 148 148 147 148 154 157 162 171 179 195 216 242 255 261 248 236 270 287 285 290 292 292 294 293 293 289 289 290 289 288 284 282 283 283 281 277 275 270 268 270 269 268 267 265 264 260 254 250 250 246 243 242 238 238 238 230 228 226 220 216 214
160 161 163 162 159 151 142 138 140 141 142 147 149 150 154 157 156 156 159 160 160 157 151 147 143 140 139 141 147 148 149 160 169 191 233 275 306 325 331 296 293 296 291 296 298 298 301 300 300 300 298 295 293 295 294 293 291 288 285 280 274 269 269 271 271 272 271 267 264 261 260 253 248 245 241 243 240 236 238 232 224 224 225 222 218
156 154 154 152 145 138 135 138 142 147 149 150 153 158 160 158 158 158 160 163 156 150 145 138 133 130 130 133 134 135 140 149 141 62 322 340 342 336 326 311 304 298 295 301 305 306 307 306 304 303 302 297 295 298 299 299 297 291 288 284 279 274 270 268 270 272 271 269 269 267 266 259 251 249 245 244 241 235 236 233 224 220 224 226 224
125 132 135 138 137 138 143 150 149 151 154 153 156 162 163 165 165 158 165 169 152 142 136 128 124 120 121 122 119 116 110 92 67 35 4 357 346 330 324 319 310 303 304 309 315 316 314 313 309 307 305 302 300 299 297 300 298 292 288 282 278 273 265 264 265 268 271 274 276 272 268 263 257 254 251 247 244 238 234 233 225 215 216 225 228
91 113 103 117 154 152 152 164 159 155 161 160 161 168 172 170 162 164 177 167 145 138 124 115 113 108 107 105 101 93 84 68 49 38 19 360 340 331 328 321 316 314 315 315 319 321 319 317 314 312 308 304 306 304 304 305 299 294 292 287 284 277 267 261 262 266 272 275 275 272 269 266 263 258 255 251 248 246 238 233 224 215 218 224 228
136 142 129 144 174 166 163 174 166 162 169 167 171 178 174 161 155 174 181 150 131 128 114 109 107 100 96 90 84 74 66 55 40 29 18 8 350 340 335 327 325 325 323 320 321 322 321 322 321 319 313 305 306 308 311 308 301 304 305 299 295 288 274 259 261 266 270 273 271 269 269 269 267 263 260 255 250 251 247 238 231 231 231 224 223
152 151 159 170 175 173 182 183 172 172 176 172 181 177 164 162 167 172 158 123 113 110 104 104 101 95 88 77 69 58 49 40 28 20 11 7 359 352 346 340 339 337 332 327 325 324 325 328 328 324 318 312 307 307 310 306 305 312 308 300 302 304 300 264 270 272 266 268 264 259 263 267 268 266 264 260 256 258 254 245 239 241 239 227 224
143 133 156 172 169 168 183 185 180 182 178 176 179 159 147 165 165 145 125 113 109 106 103 98 91 88 83 73 64 51 42 35 26 21 12 6 2 357 350 347 347 344 340 335 332 331 330 330 332 328 323 319 316 314 311 304 304 311 309 304 303 301 307 332 311 296 270 262 258 254 257 261 266 267 263 259 256 255 255 254 246 242 242 234 228
135 129 143 155 165 183 186 179 179 181 175 171 159 141 147 156 145 129 119 114 110 107 104 98 94 91 84 77 65 50 44 39 30 26 20 16 14 6 358 354 351 350 347 341 336 335 334 335 336 333 329 325 320 318 314 308 301 295 294 297 301 303 315 327 321 312 286 270 261 255 258 259 263 265 261 260 258 253 254 259 253 242 241 236 229
135 135 139 144 169 195 185 167 173 179 168 155 148 157 169 160 146 135 124 120 113 100 93 94 97 90 80 74 65 54 45 42 37 32 26 22 21 15 8 2 358 357 353 347 343 340 338 339 340 336 332 329 323 317 314 314 306 289 280 276 284 291 297 311 315 310 301 286 267 261 260 255 256 256 259 264 263 257 253 256 252 243 242 237 231
132 136 139 142 160 180 168 162 172 170 156 148 160 175 169 139 118 111 111 112 105 95 90 91 90 85 79 71 63 58 48 46 44 38 33 26 22 19 14 8 3 360 353 349 349 345 341 339 340 337 332 330 327 320 316 318 312 301 293 282 282 282 279 289 298 302 307 298 284 277 264 253 254 254 257 264 265 262 259 258 253 246 244 243 238
127 134 134 132 141 153 157 159 154 146 146 151 158 153 132 113 103 97 95 95 97 103 106 100 92 85 80 70 64 62 54 51 47 41 37 31 27 22 18 14 7 2 357 353 349 346 343 338 337 339 335 331 329 323 319 320 315 310 310 301 293 289 283 283 283 279 288 297 298 294 284 273 265 262 263 262 260 260 258 256 255 248 245 246 241
130 130 129 126 131 141 145 137 119 120 131 129 119 107 99 96 97 98 97 98 105 114 115 105 93 83 75 70 68 64 58 55 47 40 34 28 27 23 18 15 9 3 358 353 347 345 343 338 337 338 336 332 328 325 325 326 322 319 318 313 308 304 296 292 288 282 282 290 294 298 301 289 269 270 270 257 251 253 251 250 248 243 243 247 244
132 124 124 124 125 124 122 121 116 117 117 106 93 87 83 81 85 96 105 112 116 115 112 100 83 76 74 71 69 62 57 51 42 36 28 22 22 19 15 11 8 3 358 353 348 346 344 339 337 335 335 334 330 329 330 328 325 324 324 320 316 313 309 304 301 298 293 286 285 293 301 298 289 285 274 258 253 254 255 253 244 240 244 249 247
122 117 117 119 119 114 115 121 118 113 102 85 79 74 72 76 82 87 91 97 100 99 97 87 74 74 74 70 68 64 57 48 39 33 25 20 21 19 16 14 12 7 1 357 351 348 345 341 338 335 337 338 333 330 329 327 326 324 323 322 320 320 318 314 313 313 307 297 296 299 301 300 301 299 290 277 269 261 259 257 248 243 245 245 244